Osceola Municipal Airport
Sunday 2:35 PM
Temperature69° (69°/57°)
Dew Point53°
Relative Humidity56
%
Visibility10
mi
Pressure1024.7
mb
Wind DirectionSE
130°
Wind Speed10
mph
Precipitation Today0.00"

Last 30 Observations

Time PresWx Temp DP Feels RH% Vsby Pressure Ceiling Direction Speed 1h Precip
2:35 PM 69° 53° 56
%
10
mi
1024.7
mb
8,000
ft
SE
130°
10
mph
0.00"
2:15 PM 69° 53° 57
%
10
mi
1025.1
mb
8,000
ft
SE
140°
7
mph
0.00"
1:55 PM 68° 53° 58
%
7
mi
1025.4
mb
8,000
ft
SSE
150°
7
mph
0.00"
1:35 PM 68° 52° 57
%
10
mi
1025.7
mb
7,000
ft
SSE
150°
9
mph
0.00"
1:15 PM 67° 52° 58
%
10
mi
1025.7
mb
8,000
ft
SE
140°
8
mph
0.00"
12:55 PM 67° 52° 60
%
10
mi
1026.1
mb
7,000
ft
SE
130°
6
mph
0.00"
12:35 PM 66° 51° 58
%
10
mi
1026.1
mb
7,000
ft
SE
130°
9
mph
0.00"
12:15 PM 67° 51° 57
%
10
mi
1026.1
mb
7,000
ft
SE
140°
9
mph
0.00"
11:55 AM 67° 51° 56
%
10
mi
1026.1
mb
7,000
ft
SE
140°
9
mph
0.00"
11:35 AM 67° 51° 56
%
10
mi
1026.1
mb
7,000
ft
SE
140°
9
mph
0.00"
11:15 AM 67° 52° 58
%
10
mi
1026.4
mb
7,000
ft
SE
140°
8
mph
0.00"
10:55 AM 68° 51° 55
%
10
mi
1026.4
mb
7,000
ft
SE
140°
11
mph
0.00"
10:35 AM 67° 51° 56
%
10
mi
1026.1
mb
7,000
ft
SE
140°
11
mph
0.00"
10:15 AM 67° 52° 57
%
10
mi
1026.1
mb
11,000
ft
SE
130°
13
mph
0.00"
9:55 AM 67° 53° 61
%
7
mi
1026.4
mb
7,000
ft
SE
140°
9
mph
0.00"
9:35 AM 65° 53° 63
%
7
mi
1026.4
mb
7,000
ft
SE
130°
8
mph
0.00"
9:15 AM 65° 52° 63
%
10
mi
1026.4
mb
7,000
ft
SE
140°
9
mph
0.00"
8:55 AM 64° 54° 70
%
7
mi
1026.4
mb
12,000
ft
ESE
120°
9
mph
0.00"
8:35 AM 62° 55° 77
%
7
mi
1026.1
mb
12,000
ft
ESE
110°
8
mph
0.00"
8:15 AM 61° 55° 81
%
7
mi
1026.4
mb
7,000
ft
E
100°
5
mph
0.00"
7:55 AM 60° 55° 82
%
10
mi
1026.4
mb
7,000
ft
E
100°
5
mph
0.00"
7:35 AM 60° 55° 82
%
10
mi
1026.1
mb
7,000
ft
ESE
120°
5
mph
0.00"
7:15 AM BR 59° 55° 87
%
3
mi
1025.7
mb
7,000
ft
E
90°
6
mph
0.00"
6:55 AM 59° 56° 88
%
7
mi
1025.7
mb
7,000
ft
E
80°
3
mph
0.00"
6:35 AM 58° 56° 91
%
10
mi
1025.4
mb
7,000
ft
ESE
120°
3
mph
0.00"
6:15 AM 58° 55° 91
%
7
mi
1025.4
mb
7,000
ft
Calm 0.00"
5:55 AM 57° 55° 93
%
10
mi
1024.7
mb
11,000
ft
E
90°
3
mph
0.00"
5:35 AM 57° 55° 93
%
10
mi
1024.1
mb
11,000
ft
E
100°
3
mph
0.00"
5:15 AM 57° 56° 94
%
10
mi
1024.4
mb
11,000
ft
Calm 0.00"
4:55 AM 58° 56° 92
%
7
mi
1024.4
mb
11,000
ft
Calm 0.00"